Flag Weather past 2 weeks in Hay River, Northwest Territories, Canada

Now
1 °F

Light snow. Passing clouds.


Feels Like: -6 °F
Forecast: 6 / 12 °F
Wind: 3 mph from South

Location: Hay River

Current Time: Nov 22, 2014 at 7:28:16 PM

Latest Report: Nov 22, 2014 at 7:00 PM


Visibility: 13 mi

Pressure: 29.92 "Hg

Humidity: 78%

Dew point: -4 °F

Location of Hay RiverLocation

Historic Weather in Hay River — Graph

°F

Hay River temperature yesterday

Maximum temperature yesterday: 18 °F (at 12:00 AM)
Minimum temperature yesterday: 0 °F (at 11:00 PM)
Average temperature yesterday: 8 °F

Past Weeks' High & Low Weather Summary

 TemperatureHumidityPressure
High63 °F (Nov 8, 7:00 PM)93% (Nov 13, 8:00 PM)30.97 "Hg (Nov 13, 8:00 PM)
Low-9 °F (Nov 11, 2:00 AM)3% (Nov 9, 1:00 PM)29.61 "Hg (Nov 20, 3:00 PM)
Average10 °F81%30.34 "Hg
* Reported Nov 7 6:00 PM — Nov 22 6:00 PM, Hay River, Weather by CustomWeather, © 2014

Note: Actual official high and low records may vary slightly from our data, if they occured in-between our weather recording intervals... More about our weather records

Advertising

Hay River weather history for previous 24 hours

 ConditionsComfort  
Time TempWeatherWind HumidityBarometerVisibility
6:00 PM
Nov 22
1 °FPassing clouds.No wind78%29.93 "Hg15 mi
5:00 PM1 °FMostly cloudy.No wind85%29.92 "Hg15 mi
4:00 PM1 °FMostly cloudy.No wind85%29.91 "Hg15 mi
3:00 PM1 °FBroken clouds.No wind85%29.90 "Hg15 mi
2:00 PM3 °FCloudy.2 mph72%29.89 "Hg15 mi
1:00 PM1 °FBroken clouds.No wind78%29.89 "Hg15 mi
12:00 PM1 °FBroken clouds.2 mph78%29.88 "Hg15 mi
11:00 AM0 °FPartly sunny.3 mph84%29.86 "Hg15 mi
10:00 AM-2 °FPartly sunny.3 mph77%29.85 "Hg15 mi
9:00 AM-2 °FPassing clouds.2 mph77%29.84 "Hg15 mi
8:00 AM-4 °FPartly cloudy.3 mph77%29.83 "Hg15 mi
7:57 AM-2 °FPartly cloudy.3 mph84%29.83 "Hg15 mi
7:00 AM0 °FLight snow. Passing clouds.No wind84%29.82 "Hg12 mi
6:00 AM1 °FLight snow. Overcast.5 mph85%29.81 "Hg8 mi
5:00 AM3 °FLight snow. Overcast.5 mph85%29.80 "Hg8 mi
4:00 AM7 °FLight snow. Overcast.3 mph85%29.80 "Hg8 mi
3:00 AM9 °FLight snow. Overcast.7 mph85%29.80 "Hg4 mi
2:00 AM9 °FLight snow. Overcast.7 mph85%29.80 "Hg2 mi
1:00 AM3 °FLight snow. Overcast.13 mph85%29.83 "Hg2 mi
12:57 AM3 °FLight snow. Overcast.15 mph85%29.83 "Hg2 mi
12:00 AM1 °FLight snow. Mostly cloudy.14 mph85%29.84 "Hg3 mi
11:00 PM
Nov 21
0 °FLight snow. Mostly cloudy.12 mph84%29.85 "Hg4 mi
10:00 PM1 °FLight snow. Overcast.13 mph78%29.84 "Hg5 mi
9:00 PM3 °FLight snow. Overcast.14 mph85%29.84 "Hg2 mi
8:00 PM3 °FLight snow. Overcast.9 mph85%29.85 "Hg2 mi
7:00 PM1 °FLight snow. Overcast.14 mph85%29.86 "Hg2 mi
Weather by CustomWeather, © 2014

See weather overviewHow to use our weather pages